www.pogodaiklimat.ru

Погода и климат >> Архив погоды >> Россия >> Сахалинская область >> Остров Монерон


ПОГОДА на Остров Монерон

  • Прогноз погоды на Остров Монерон
  • Монитор погоды на Остров Монерон
  • Климат города

АРХИВ ПОГОДЫ на Остров Монерон

Время (UTC), дата Ветер
(напр.,м/с)
 
Видим.   Явления Облачность Т
(С)
Тd
(С)
f
(%)
Тe
(С)
Тes
(С)
Комфортность P
(гПа)
Po
(гПа)
Тmin
(С)
Tmax
(С)
R
(мм)
R24
(мм)
S
(см)
00 14.09 З 8 20 км 10 баллов +16.9 +14.4 85 +16 +16 1016.9 1004.0
03 14.09 ЮЗ 6 20 км 7 баллов +18.5 +15.0 80 +19 +20 1015.5 1002.7
06 14.09 ЮЗ 9 20 км 6 баллов +17.6 +14.7 83 +16 +17 1014.1 1001.3
09 14.09 ЮЗ 8 20 км 9 баллов +16.5 +14.9 90 +15 +15 1015.6 1002.7 +18.8
12 14.09 З 7 20 км 2 балла +16.2 +13.7 85 +15 +15 1015.6 1002.7
15 14.09 З 9 20 км 2 балла +16.4 +15.1 92 +15 +15 1015.6 1002.7
18 14.09 штиль 0 20 км ясно +15.9 +14.1 89 +16 +16 1015.6 1002.7
21 14.09 ЮЗ 5-6
{9}
20 км 3/3 600 м
[Sc]
+15.9 +14.8 93 +15 +15 1015.2 1002.3 +15.4
00 15.09 ЮЗ 8 20 км 5 баллов +17.9 +15.3 85 +17 +18 1015.5 1002.7
03 15.09 ЮЗ 9 20 км 10 баллов +18.2 +15.6 85 +17 +17 1015.5 1002.7
06 15.09 ЮЗ 9 20 км 7 баллов +17.2 +15.4 89 +16 +16 1014.1 1001.3
09 15.09 ЮЗ 10 20 км 10 баллов +16.6 +14.6 88 +15 +15 1014.2 1001.3 +18.6
12 15.09 ЮЗ 10 20 км 10 баллов +16.8 +15.0 89 +15 +15 1011.5 998.7
15 15.09 ЮЗ 11 20 км 10 баллов +16.8 +15.1 90 +15 +15 1011.5 998.7
18 15.09 ЮЗ 10 20 км 10 баллов +16.9 +15.4 91 +15 +15 1010.1 997.3
21 15.09 З 8-11
{16}
4000 м дымка {ливн. осадки} 10/8 300 м
[Cb cap Ci fib]
+16.7 +15.8 94 +15 +15 1009.5 996.8 +16.6 0.5
00 16.09 З 6 20 км 2 балла +18.2 +14.3 78 +18 +20 1011.5 998.7
03 16.09 СЗ 5 20 км 2 балла +19.5 +9.7 53 +20 +25 1010.0 997.3
06 16.09 ЮЗ 4 20 км 2 балла +18.9 +10.2 57 +20 +22 1010.0 997.3
09 16.09 ЮЗ 7 20 км 4 балла +16.3 +12.3 77 +15 +15 1010.1 997.3 +20.6
12 16.09 ЮЗ 8 20 км 2 балла +16.2 +12.9 81 +15 +15 1008.8 996.0
15 16.09 ЮЗ 6 20 км 1 балл +15.6 +12.5 82 +14 +14 1008.8 996.0
18 16.09 З 7 20 км ясно +15.6 +13.3 86 +14 +14 1007.5 994.7
21 16.09 З 5-8
{10}
20 км ясно +15.8 +13.3 85 +15 +15 1005.9 993.2 +15.4
00 17.09 З 3 20 км 1 балл +18.7 +11.5 63 +20 +24 1006.0 993.3
03 17.09 З 5 20 км 2 балла +18.9 +10.2 57 +19 +24 1006.0 993.3
06 17.09 З 3 20 км 1 балл +18.5 +9.8 57 +19 +22 1004.7 992.0
09 17.09 З 3 20 км 7 баллов +16.3 +10.4 68 +16 +16 1006.1 993.3 +20.0
12 17.09 С 2 20 км 9 баллов +16.1 +9.3 64 +16 +16 1007.5 994.7
15 17.09 З 2 20 км 2 балла +14.6 +8.3 66 +14 +14 1007.6 994.7
18 17.09 СЗ 4 20 км 2 балла +15.6 +6.1 53 +15 +15 1007.5 994.7
21 17.09 З 8-15
{16}
20 км 8/8 600 м
[Sc]
+15.7 +6.8 55 +14 +14 1005.5 992.7 +14.2
00 18.09 С 5 20 км 7 баллов +17.0 +5.6 47 +16 +17 1007.5 994.7
03 18.09 С 3 20 км 7 баллов +16.9 +5.8 48 +17 +19 1007.5 994.7
06 18.09 З 4 20 км 2 балла +17.0 +6.5 50 +17 +19 1007.5 994.7
09 18.09 ЮЗ 5 20 км 7 баллов +16.1 +9.1 63 +15 +15 1007.5 994.7 +18.1
12 18.09 ЮЗ 4 20 км 9 баллов +16.2 +11.8 75 +15 +15 1006.1 993.3
15 18.09 СЗ 3 20 км 1 балл +15.2 +7.5 60 +15 +15 1006.1 993.3
18 18.09 СЗ 4 20 км 2 балла +14.5 +7.3 62 +13 +13 1006.2 993.3
21 18.09 С 3-8
{13}
20 км 3/3 600 м
[Cu Sc]
+14.0 +8.3 68 +13 +13 1006.5 993.7 +13.7
00 19.09 С 4 20 км 4 балла +15.9 +7.4 57 +15 +18 1008.8 996.0
03 19.09 С 3 20 км 2 балла +17.1 +6.6 50 +17 +24 1008.8 996.0
06 19.09 С 3 20 км 4 балла +16.1 +6.5 53 +16 +18 1008.8 996.0
09 19.09 З 3 20 км ясно +13.9 +5.8 58 +13 +13 1010.3 997.3 +17.3
12 19.09 З 2 20 км 2 балла +14.7 +9.3 70 +14 +14 1010.2 997.3
15 19.09 СЗ 3 20 км 2 балла +15.0 +5.5 53 +14 +14 1010.2 997.3
18 19.09 С 3 20 км 2 балла +14.7 +4.4 50 +14 +14 1010.2 997.3
21 19.09 СЗ 3-6
{8}
20 км 1/1 600 м
[Cu hum]
+14.8 +6.6 58 +14 +14 1009.5 996.7 +13.9
00 20.09 СВ 2 20 км 1 балл +18.0 +8.8 55 +19 +24 1011.5 998.7
03 20.09 З 5 20 км 2 балла +17.2 +7.8 54 +17 +21 1011.5 998.7
06 20.09 З 5 20 км 2 балла +16.6 +7.5 55 +16 +18 1010.1 997.3
09 20.09 З 5 20 км ясно +14.3 +6.9 61 +13 +13 1011.7 998.7 +18.3
12 20.09 З 6 20 км 6 баллов +14.9 +6.5 57 +13 +13 1014.3 1001.3
15 20.09 З 4 20 км 2 балла +15.1 +6.4 56 +14 +14 1015.7 1002.7
18 20.09 СЗ 5 20 км ясно +14.8 +7.8 63 +13 +13 1015.7 1002.7

 

Местоположение метеостанции Остров Монерон (Сахалинская область, Россия): широта 46.25 долгота 141.20 высота над уровнем моря 109 м.

В архиве по умолчанию представлена погода на Остров Монерон за последнюю неделю. Архивные данные за месяц целиком и за предыдущие месяцы, начиная с января 2011 года, Вы можете получить, выбрав интересующий диапазон дат из раскрывающегося списка и нажав кнопку "Ввод!".


*Определитесь, кто Вы:
робот инопланетянин человек

Внимание! Время в таблицах - всемирное. Для получения местного времени необходимо прибавить поправку, которая на Остров Монерон равна 11 ч.

Смотрите также архив погоды в соседних городах и на ближайших метеорологических станциях:

Погода в Невельске (Сахалинская область, Россия) (66 км)
Погода на Мысе Крильон (Сахалинская область, Россия) (73 км)
Погода в Wakkanai (Япония) (100 км)
Погода в Холмске (Сахалинская область, Россия) (108 км)
Погода в Огоньках (Сахалинская область, Россия) (109 км)
Погода в Корсакове (Сахалинская область, Россия) (123 км)
Погода в Южно-Сахалинске (Сахалинская область, Россия) (139 км)
Погода в Новиково (Сахалинская область, Россия) (162 км)
Погода в Долинске (Сахалинская область, Россия) (171 км)
Погода в Мальково (Сахалинская область, Россия) (171 км)

Пояснения к столбцам:

Ветер - указаны скорость ветра в м/с - средняя за 10 мин, порывы в срок и между сроками (в фигурных скобках) и направление, откуда дует ветер: С - северный, СВ - северо-восточный, В - восточный, ЮВ - юго-восточный, Ю - южный, ЮЗ - юго-западный, З - западный, СЗ - северо-западный.
Видимость - горизонтальная дальность видимости в метрах или километрах. При видимости от 1 до 10 км при отсутствии осадков обычно наблюдается дымка, при ухудшении видимости до 1 км и менее - туман. В сухую погоду видимость может ухудшаться дымом, пылью или мглою.
Явления - указаны атмосферные явления, наблюдавшиеся в срок или в последний час перед сроком; фигурными скобками обозначены явления, наблюдавшиеся между сроками (за 1-3 часа до срока); квадратными скобками обозначены град или гололедные отложения с указанием их диаметра в мм.
Облачность - указаны через наклонную черту общая и нижняя облачность в баллах и высота нижней границы облаков в метрах; квадратными скобками обозначены формы облаков: Ci - перистые, Cs - перисто-слоистые, Cc - перисто-кучевые, Ac - высококучевые, As - высокослоистые, Sc - слоисто-кучевые, Ns - слоисто-дождевые, Cu - кучевые, Cb - кучево-дождевые. Подробнее классификацию облаков см. в Атласе облаков (PDF).
T - Температура воздуха - температура, измеренная на высоте 2 м над землей.
Td - Температура точки росы - температура, при понижении до которой содержащийся в воздухе водяной пар достигнет насыщения.
f - Относительная влажность воздуха - влажноcть воздуха, измеренная на высоте 2 м над землей.
Te - Эффективная температура - температура, которую ощущает одетый по сезону человек в тени. Характеристика душности погоды. При расчете учитывается влияние влажности воздуха и скорости ветра на теплоощущения человека.
Tes - Эффективная температура на солнце - температура, которую ощущает человек, с поправкой на солнечный нагрев. Характеристика знойности погоды. Зависит от высоты солнца над горизонтом, облачности и скорости ветра. Ночью, в пасмурную погоду, а также при ветре 12 м/с и более поправка равна нулю.
P - Атмосферное давление - приведенное к уровню моря атмосферное давление.
Po - Атмосферное давление - измеренное на уровне метеостанции атмосферное давление.
Tmin - Минимальная температура - минимум температуры воздуха на высоте 2 м над землей.
Tmax - Максимальная температура - максимум температуры воздуха на высоте 2 м над землей.
R - Количество осадков - Количество выпавших осадков за период времени, мм. При наведении курсора мыши на число - период времени, за который выпало указанное количество осадков.
R24 - Количество осадков - Количество выпавших осадков за 24 часа, мм.
S - Снежный покров - Высота снежного покрова, см. При наведении курсора мыши на число - состояние снежного покрова и степень покрытия местности в баллах.